Year,Month,Day,Hour,Minute,Value (Times are PST for barometer in hPa)
2010,08,22,00,00,1016.36
2010,08,22,00,01,1016.39
2010,08,22,00,02,1016.36
2010,08,22,00,03,1016.36
2010,08,22,00,04,1016.39
2010,08,22,00,05,1016.39
2010,08,22,00,06,1016.39
2010,08,22,00,07,1016.42
2010,08,22,00,08,1016.42
2010,08,22,00,09,1016.39
2010,08,22,00,10,1016.39
2010,08,22,00,11,1016.36
2010,08,22,00,12,1016.36
2010,08,22,00,13,1016.39
2010,08,22,00,17,1016.36
2010,08,22,00,18,1016.36
2010,08,22,00,19,1016.36
2010,08,22,00,20,1016.39
2010,08,22,00,21,1016.39
2010,08,22,00,22,1016.39
2010,08,22,00,23,1016.42
2010,08,22,00,24,1016.42
2010,08,22,00,25,1016.46
2010,08,22,00,26,1016.42
2010,08,22,00,27,1016.42
2010,08,22,00,28,1016.42
2010,08,22,00,29,1016.46
2010,08,22,00,30,1016.46
2010,08,22,00,31,1016.46
2010,08,22,00,32,1016.46
2010,08,22,00,33,1016.49
2010,08,22,00,34,1016.53
2010,08,22,00,35,1016.53
2010,08,22,00,36,1016.56
2010,08,22,00,37,1016.56
2010,08,22,00,38,1016.59
2010,08,22,00,39,1016.59
2010,08,22,00,40,1016.59
2010,08,22,00,41,1016.59
2010,08,22,00,42,1016.60
2010,08,22,00,43,1016.66
2010,08,22,00,44,1016.63
2010,08,22,00,45,1016.63
2010,08,22,00,46,1016.66
2010,08,22,00,47,1016.66
2010,08,22,00,48,1016.66
2010,08,22,00,49,1016.70
2010,08,22,00,50,1016.66
2010,08,22,00,51,1016.70
2010,08,22,00,52,1016.66
2010,08,22,00,53,1016.70
2010,08,22,00,54,1016.66
2010,08,22,00,55,1016.69
2010,08,22,00,56,1016.63
2010,08,22,00,57,1016.63
2010,08,22,00,58,1016.66
2010,08,22,00,59,1016.66
2010,08,22,01,00,1016.66
2010,08,22,01,01,1016.73
2010,08,22,01,02,1016.73
2010,08,22,01,03,1016.71
2010,08,22,01,04,1016.79
2010,08,22,01,05,1016.70
2010,08,22,01,06,1016.73
2010,08,22,01,07,1016.73
2010,08,22,01,08,1016.72
2010,08,22,01,09,1016.66
2010,08,22,01,10,1016.67
2010,08,22,01,11,1016.73
2010,08,22,01,12,1016.70
2010,08,22,01,13,1016.70
2010,08,22,01,14,1016.66
2010,08,22,01,15,1016.70
2010,08,22,01,16,1016.66
2010,08,22,01,17,1016.63
2010,08,22,01,18,1016.63
2010,08,22,01,19,1016.59
2010,08,22,01,20,1016.63
2010,08,22,01,21,1016.63
2010,08,22,01,22,1016.63
2010,08,22,01,23,1016.66
2010,08,22,01,24,1016.69
2010,08,22,01,25,1016.63
2010,08,22,01,26,1016.63
2010,08,22,01,27,1016.66
2010,08,22,01,28,1016.64
2010,08,22,01,29,1016.70
2010,08,22,01,30,1016.66
2010,08,22,01,31,1016.66
2010,08,22,01,32,1016.66
2010,08,22,01,33,1016.70
2010,08,22,01,34,1016.70
2010,08,22,01,35,1016.70
2010,08,22,01,36,1016.66
2010,08,22,01,37,1016.66
2010,08,22,01,38,1016.66
2010,08,22,01,39,1016.70
2010,08,22,01,40,1016.66
2010,08,22,01,41,1016.70
2010,08,22,01,42,1016.66
2010,08,22,01,43,1016.66
2010,08,22,01,44,1016.70
2010,08,22,01,45,1016.67
2010,08,22,01,46,1016.73
2010,08,22,01,47,1016.70
2010,08,22,01,48,1016.66
2010,08,22,01,49,1016.64
2010,08,22,01,50,1016.70
2010,08,22,01,51,1016.66
2010,08,22,01,52,1016.70
2010,08,22,01,53,1016.66
2010,08,22,01,54,1016.70
2010,08,22,01,55,1016.70
2010,08,22,01,56,1016.70
2010,08,22,01,57,1016.70
2010,08,22,01,58,1016.66
2010,08,22,01,59,1016.70
2010,08,22,02,00,1016.70
2010,08,22,02,01,1016.66
2010,08,22,02,02,1016.66
2010,08,22,02,03,1016.66
2010,08,22,02,04,1016.66
2010,08,22,02,05,1016.70
2010,08,22,02,06,1016.66
2010,08,22,02,07,1016.66
2010,08,22,02,08,1016.66
2010,08,22,02,09,1016.73
2010,08,22,02,10,1016.71
2010,08,22,02,11,1016.76
2010,08,22,02,12,1016.76
2010,08,22,02,13,1016.76
2010,08,22,02,14,1016.76
2010,08,22,02,15,1016.76
2010,08,22,02,16,1016.76
2010,08,22,02,17,1016.76
2010,08,22,02,18,1016.76
2010,08,22,02,19,1016.73
2010,08,22,02,20,1016.76
2010,08,22,02,21,1016.73
2010,08,22,02,22,1016.76
2010,08,22,02,23,1016.73
2010,08,22,02,24,1016.76
2010,08,22,02,25,1016.80
2010,08,22,02,26,1016.76
2010,08,22,02,27,1016.76
2010,08,22,02,28,1016.76
2010,08,22,02,29,1016.76
2010,08,22,02,30,1016.73
2010,08,22,02,31,1016.73
2010,08,22,02,32,1016.73
2010,08,22,02,33,1016.76
2010,08,22,02,34,1016.76
2010,08,22,02,35,1016.73
2010,08,22,02,36,1016.76
2010,08,22,02,37,1016.76
2010,08,22,02,38,1016.73
2010,08,22,02,39,1016.73
2010,08,22,02,40,1016.76
2010,08,22,02,41,1016.76
2010,08,22,02,42,1016.73
2010,08,22,02,43,1016.76
2010,08,22,02,44,1016.80
2010,08,22,02,45,1016.76
2010,08,22,02,46,1016.80
2010,08,22,02,47,1016.76
2010,08,22,02,48,1016.80
2010,08,22,02,49,1016.80
2010,08,22,02,50,1016.80
2010,08,22,02,51,1016.76
2010,08,22,02,52,1016.80
2010,08,22,02,53,1016.76
2010,08,22,02,54,1016.80
2010,08,22,02,55,1016.76
2010,08,22,02,56,1016.76
2010,08,22,02,57,1016.76
2010,08,22,02,58,1016.76
2010,08,22,02,59,1016.76
2010,08,22,03,00,1016.76
2010,08,22,03,01,1016.77
2010,08,22,03,02,1016.83
2010,08,22,03,03,1016.83
2010,08,22,03,04,1016.81
2010,08,22,03,05,1016.90
2010,08,22,03,06,1016.83
2010,08,22,03,07,1016.87
2010,08,22,03,08,1016.83
2010,08,22,03,09,1016.83
2010,08,22,03,10,1016.86
2010,08,22,03,11,1016.80
2010,08,22,03,12,1016.83
2010,08,22,03,13,1016.87
2010,08,22,03,14,1016.87
2010,08,22,03,15,1016.87
2010,08,22,03,16,1016.80
2010,08,22,03,17,1016.87
2010,08,22,03,18,1016.87
2010,08,22,03,19,1016.93
2010,08,22,03,20,1016.93
2010,08,22,03,21,1016.97
2010,08,22,03,22,1016.97
2010,08,22,03,23,1016.97
2010,08,22,03,24,1017.03
2010,08,22,03,25,1017.00
2010,08,22,03,26,1017.01
2010,08,22,03,27,1017.07
2010,08,22,03,28,1017.10
2010,08,22,03,29,1017.10
2010,08,22,03,30,1017.14
2010,08,22,03,31,1017.17
2010,08,22,03,32,1017.17
2010,08,22,03,33,1017.20
2010,08,22,03,34,1017.17
2010,08,22,03,35,1017.20
2010,08,22,03,36,1017.17
2010,08,22,03,37,1017.17
2010,08,22,03,38,1017.17
2010,08,22,03,39,1017.18
2010,08,22,03,40,1017.24
2010,08,22,03,41,1017.27
2010,08,22,03,42,1017.24
2010,08,22,03,43,1017.20
2010,08,22,03,44,1017.24
2010,08,22,03,45,1017.20
2010,08,22,03,46,1017.24
2010,08,22,03,47,1017.24
2010,08,22,03,48,1017.24
2010,08,22,03,49,1017.27
2010,08,22,03,50,1017.27
2010,08,22,03,51,1017.24
2010,08,22,03,52,1017.24
2010,08,22,03,53,1017.27
2010,08,22,03,54,1017.31
2010,08,22,03,55,1017.28
2010,08,22,03,56,1017.34
2010,08,22,03,57,1017.34
2010,08,22,03,58,1017.34
2010,08,22,03,59,1017.34
2010,08,22,04,00,1017.34
2010,08,22,04,01,1017.34
2010,08,22,04,02,1017.34
2010,08,22,04,03,1017.37
2010,08,22,04,04,1017.34
2010,08,22,04,05,1017.34
2010,08,22,04,06,1017.34
2010,08,22,04,07,1017.34
2010,08,22,04,08,1017.34
2010,08,22,04,09,1017.35
2010,08,22,04,10,1017.41
2010,08,22,04,11,1017.43
2010,08,22,04,12,1017.38
2010,08,22,04,13,1017.44
2010,08,22,04,14,1017.41
2010,08,22,04,15,1017.44
2010,08,22,04,16,1017.41
2010,08,22,04,17,1017.41
2010,08,22,04,18,1017.46
2010,08,22,04,19,1017.42
2010,08,22,04,20,1017.47
2010,08,22,04,21,1017.48
2010,08,22,04,22,1017.54
2010,08,22,04,23,1017.54
2010,08,22,04,24,1017.54
2010,08,22,04,25,1017.58
2010,08,22,04,26,1017.58
2010,08,22,04,27,1017.58
2010,08,22,04,28,1017.61
2010,08,22,04,29,1017.61
2010,08,22,04,30,1017.64
2010,08,22,04,31,1017.58
2010,08,22,04,32,1017.61
2010,08,22,04,33,1017.58
2010,08,22,04,34,1017.58
2010,08,22,04,35,1017.61
2010,08,22,04,36,1017.64
2010,08,22,04,37,1017.64
2010,08,22,04,38,1017.64
2010,08,22,04,39,1017.61
2010,08,22,04,40,1017.64
2010,08,22,04,41,1017.64
2010,08,22,04,42,1017.68
2010,08,22,04,43,1017.64
2010,08,22,04,44,1017.68
2010,08,22,04,45,1017.64
2010,08,22,04,46,1017.68
2010,08,22,04,47,1017.64
2010,08,22,04,48,1017.64
2010,08,22,04,49,1017.64
2010,08,22,04,50,1017.69
2010,08,22,04,51,1017.75
2010,08,22,04,52,1017.75
2010,08,22,04,53,1017.75
2010,08,22,04,54,1017.75
2010,08,22,04,55,1017.75
2010,08,22,04,56,1017.75
2010,08,22,04,57,1017.75
2010,08,22,04,58,1017.75
2010,08,22,04,59,1017.75
2010,08,22,05,00,1017.78
2010,08,22,05,01,1017.78
2010,08,22,05,02,1017.78
2010,08,22,05,03,1017.78
2010,08,22,05,04,1017.79
2010,08,22,05,05,1017.85
2010,08,22,05,06,1017.81
2010,08,22,05,07,1017.78
2010,08,22,05,08,1017.81
2010,08,22,05,09,1017.81
2010,08,22,05,10,1017.78
2010,08,22,05,11,1017.78
2010,08,22,05,12,1017.78
2010,08,22,05,13,1017.81
2010,08,22,05,14,1017.76
2010,08,22,05,15,1017.81
2010,08,22,05,16,1017.81
2010,08,22,05,17,1017.81
2010,08,22,05,18,1017.81
2010,08,22,05,19,1017.81
2010,08,22,05,20,1017.81
2010,08,22,05,21,1017.81
2010,08,22,05,22,1017.85
2010,08,22,05,23,1017.88
2010,08,22,05,24,1017.86
2010,08,22,05,25,1017.91
2010,08,22,05,26,1017.88
2010,08,22,05,27,1017.91
2010,08,22,05,28,1017.88
2010,08,22,05,29,1017.89
2010,08,22,05,30,1017.95
2010,08,22,05,31,1017.91
2010,08,22,05,32,1017.95
2010,08,22,05,33,1017.95
2010,08,22,05,34,1017.91
2010,08,22,05,35,1017.92
2010,08,22,05,36,1017.98
2010,08,22,05,37,1017.95
2010,08,22,05,38,1017.95
2010,08,22,05,39,1017.98
2010,08,22,05,40,1017.98
2010,08,22,05,41,1018.05
2010,08,22,05,42,1018.05
2010,08,22,05,43,1018.05
2010,08,22,05,44,1018.08
2010,08,22,05,45,1018.08
2010,08,22,05,46,1018.08
2010,08,22,05,47,1018.08
2010,08,22,05,48,1018.12
2010,08,22,05,49,1018.08
2010,08,22,05,50,1018.08
2010,08,22,05,51,1018.08
2010,08,22,05,52,1018.08
2010,08,22,05,53,1018.08
2010,08,22,05,54,1018.08
2010,08,22,05,55,1018.12
2010,08,22,05,56,1018.12
2010,08,22,05,57,1018.12
2010,08,22,05,58,1018.15
2010,08,22,05,59,1018.19
2010,08,22,06,00,1018.15
2010,08,22,06,01,1018.19
2010,08,22,06,02,1018.22
2010,08,22,06,03,1018.22
2010,08,22,06,04,1018.22
2010,08,22,06,05,1018.22
2010,08,22,06,06,1018.24
2010,08,22,06,07,1018.19
2010,08,22,06,08,1018.23
2010,08,22,06,09,1018.29
2010,08,22,06,10,1018.25
2010,08,22,06,11,1018.25
2010,08,22,06,12,1018.25
2010,08,22,06,13,1018.29
2010,08,22,06,14,1018.29
2010,08,22,06,15,1018.25
2010,08,22,06,16,1018.29
2010,08,22,06,17,1018.29
2010,08,22,06,18,1018.29
2010,08,22,06,19,1018.32
2010,08,22,06,20,1018.29
2010,08,22,06,21,1018.32
2010,08,22,06,22,1018.32
2010,08,22,06,23,1018.32
2010,08,22,06,24,1018.32
2010,08,22,06,25,1018.32
2010,08,22,06,26,1018.36
2010,08,22,06,27,1018.36
2010,08,22,06,28,1018.36
2010,08,22,06,29,1018.39
2010,08,22,06,30,1018.39
2010,08,22,06,31,1018.39
2010,08,22,06,32,1018.42
2010,08,22,06,33,1018.39
2010,08,22,06,34,1018.39
2010,08,22,06,35,1018.42
2010,08,22,06,36,1018.42
2010,08,22,06,37,1018.49
2010,08,22,06,38,1018.49
2010,08,22,06,39,1018.52
2010,08,22,06,40,1018.52
2010,08,22,06,41,1018.52
2010,08,22,06,42,1018.56
2010,08,22,06,43,1018.56
2010,08,22,06,44,1018.59
2010,08,22,06,45,1018.63
2010,08,22,06,46,1018.63
2010,08,22,06,47,1018.63
2010,08,22,06,48,1018.63
2010,08,22,06,49,1018.66
2010,08,22,06,50,1018.66
2010,08,22,06,51,1018.66
2010,08,22,06,52,1018.69
2010,08,22,06,53,1018.69
2010,08,22,06,54,1018.69
2010,08,22,06,55,1018.69
2010,08,22,06,56,1018.69
2010,08,22,06,57,1018.69
2010,08,22,06,58,1018.73
2010,08,22,06,59,1018.73
2010,08,22,07,00,1018.73
2010,08,22,07,01,1018.73
2010,08,22,07,02,1018.73
2010,08,22,07,03,1018.70
2010,08,22,07,04,1018.80
2010,08,22,07,05,1018.80
2010,08,22,07,06,1018.80
2010,08,22,07,07,1018.80
2010,08,22,07,08,1018.80
2010,08,22,07,09,1018.80
2010,08,22,07,10,1018.83
2010,08,22,07,11,1018.86
2010,08,22,07,12,1018.83
2010,08,22,07,13,1018.83
2010,08,22,07,14,1018.83
2010,08,22,07,15,1018.86
2010,08,22,07,16,1018.86
2010,08,22,07,17,1018.90
2010,08,22,07,18,1018.90
2010,08,22,07,19,1018.93
2010,08,22,07,20,1018.93
2010,08,22,07,21,1018.93
2010,08,22,07,22,1018.93
2010,08,22,07,23,1018.93
2010,08,22,07,24,1018.96
2010,08,22,07,25,1018.96
2010,08,22,07,26,1018.96
2010,08,22,07,27,1018.96
2010,08,22,07,28,1018.96
2010,08,22,07,29,1018.96
2010,08,22,07,30,1018.96
2010,08,22,07,31,1019.00
2010,08,22,07,32,1019.00
2010,08,22,07,33,1019.00
2010,08,22,07,34,1019.00
2010,08,22,07,35,1019.00
2010,08,22,07,36,1019.00
2010,08,22,07,37,1019.00
2010,08,22,07,38,1019.03
2010,08,22,07,39,1019.07
2010,08,22,07,40,1019.07
2010,08,22,07,41,1019.07
2010,08,22,07,42,1019.07
2010,08,22,07,43,1019.10
2010,08,22,07,44,1019.10
2010,08,22,07,45,1019.10
2010,08,22,07,46,1019.10
2010,08,22,07,47,1019.10
2010,08,22,07,48,1019.13
2010,08,22,07,49,1019.10
2010,08,22,07,50,1019.17
2010,08,22,07,51,1019.17
2010,08,22,07,52,1019.20
2010,08,22,07,53,1019.20
2010,08,22,07,54,1019.20
2010,08,22,07,55,1019.20
2010,08,22,07,56,1019.20
2010,08,22,07,57,1019.20
2010,08,22,07,58,1019.24
2010,08,22,07,59,1019.24
2010,08,22,08,00,1019.20
2010,08,22,08,01,1019.24
2010,08,22,08,02,1019.24
2010,08,22,08,03,1019.24
2010,08,22,08,04,1019.24
2010,08,22,08,05,1019.30
2010,08,22,08,06,1019.30
2010,08,22,08,07,1019.30
2010,08,22,08,08,1019.34
2010,08,22,08,09,1019.37
2010,08,22,08,10,1019.30
2010,08,22,08,11,1019.34
2010,08,22,08,12,1019.34
2010,08,22,08,13,1019.37
2010,08,22,08,14,1019.34
2010,08,22,08,15,1019.40
2010,08,22,08,16,1019.34
2010,08,22,08,17,1019.40
2010,08,22,08,18,1019.34
2010,08,22,08,19,1019.44
2010,08,22,08,20,1019.40
2010,08,22,08,21,1019.44
2010,08,22,08,22,1019.47
2010,08,22,08,23,1019.44
2010,08,22,08,24,1019.47
2010,08,22,08,25,1019.47
2010,08,22,08,26,1019.51
2010,08,22,08,27,1019.54
2010,08,22,08,28,1019.57
2010,08,22,08,29,1019.57
2010,08,22,08,30,1019.57
2010,08,22,08,31,1019.54
2010,08,22,08,32,1019.57
2010,08,22,08,33,1019.61
2010,08,22,08,34,1019.61
2010,08,22,08,35,1019.61
2010,08,22,08,36,1019.61
2010,08,22,08,37,1019.64
2010,08,22,08,38,1019.61
2010,08,22,08,39,1019.64
2010,08,22,08,40,1019.64
2010,08,22,08,41,1019.64
2010,08,22,08,42,1019.64
2010,08,22,08,43,1019.68
2010,08,22,08,44,1019.64
2010,08,22,08,45,1019.64
2010,08,22,08,46,1019.64
2010,08,22,08,47,1019.64
2010,08,22,08,48,1019.61
2010,08,22,08,49,1019.61
2010,08,22,08,50,1019.68
2010,08,22,08,51,1019.68
2010,08,22,08,52,1019.68
2010,08,22,08,53,1019.68
2010,08,22,08,54,1019.74
2010,08,22,08,55,1019.71
2010,08,22,08,56,1019.78
2010,08,22,08,57,1019.74
2010,08,22,08,58,1019.81
2010,08,22,08,59,1019.78
2010,08,22,09,00,1019.85
2010,08,22,09,01,1019.85
2010,08,22,09,02,1019.85
2010,08,22,09,03,1019.85
2010,08,22,09,04,1019.85
2010,08,22,09,05,1019.81
2010,08,22,09,06,1019.85
2010,08,22,09,07,1019.81
2010,08,22,09,08,1019.85
2010,08,22,09,09,1019.81
2010,08,22,09,10,1019.85
2010,08,22,09,11,1019.88
2010,08,22,09,12,1019.91
2010,08,22,09,13,1019.88
2010,08,22,09,14,1019.88
2010,08,22,09,15,1019.88
2010,08,22,09,16,1019.91
2010,08,22,09,17,1019.88
2010,08,22,09,18,1019.91
2010,08,22,09,19,1019.91
2010,08,22,09,20,1019.91
2010,08,22,09,21,1019.98
2010,08,22,09,22,1020.01
2010,08,22,09,23,1019.98
2010,08,22,09,24,1020.01
2010,08,22,09,25,1020.01
2010,08,22,09,26,1020.01
2010,08,22,09,27,1019.95
2010,08,22,09,28,1020.01
2010,08,22,09,29,1019.98
2010,08,22,09,30,1020.01
2010,08,22,09,31,1020.01
2010,08,22,09,32,1020.05
2010,08,22,09,33,1020.05
2010,08,22,09,34,1020.05
2010,08,22,09,35,1020.05
2010,08,22,09,36,1020.05
2010,08,22,09,37,1020.08
2010,08,22,09,38,1020.08
2010,08,22,09,39,1020.08
2010,08,22,09,40,1020.12
2010,08,22,09,41,1020.18
2010,08,22,09,42,1020.18
2010,08,22,09,43,1020.15
2010,08,22,09,44,1020.18
2010,08,22,09,45,1020.15
2010,08,22,09,46,1020.18
2010,08,22,09,47,1020.22
2010,08,22,09,48,1020.18
2010,08,22,09,49,1020.22
2010,08,22,09,50,1020.18
2010,08,22,09,51,1020.22
2010,08,22,09,52,1020.22
2010,08,22,09,53,1020.22
2010,08,22,09,54,1020.25
2010,08,22,09,55,1020.25
2010,08,22,09,56,1020.25
2010,08,22,09,57,1020.25
2010,08,22,09,58,1020.29
2010,08,22,09,59,1020.29
2010,08,22,10,00,1020.29
2010,08,22,10,01,1020.32
2010,08,22,10,02,1020.32
2010,08,22,10,03,1020.39
2010,08,22,10,04,1020.32
2010,08,22,10,05,1020.39
2010,08,22,10,06,1020.39
2010,08,22,10,07,1020.35
2010,08,22,10,08,1020.39
2010,08,22,10,09,1020.42
2010,08,22,10,10,1020.42
2010,08,22,10,11,1020.49
2010,08,22,10,12,1020.45
2010,08,22,10,13,1020.52
2010,08,22,10,14,1020.49
2010,08,22,10,15,1020.49
2010,08,22,10,16,1020.52
2010,08,22,10,17,1020.52
2010,08,22,10,18,1020.56
2010,08,22,10,19,1020.62
2010,08,22,10,20,1020.66
2010,08,22,10,21,1020.62
2010,08,22,10,22,1020.66
2010,08,22,10,23,1020.66
2010,08,22,10,24,1020.69
2010,08,22,10,25,1020.73
2010,08,22,10,26,1020.76
2010,08,22,10,27,1020.76
2010,08,22,10,28,1020.76
2010,08,22,10,29,1020.79
2010,08,22,10,30,1020.76
2010,08,22,10,31,1020.83
2010,08,22,10,32,1020.83
2010,08,22,10,33,1020.83
2010,08,22,10,34,1020.83
2010,08,22,10,35,1020.83
2010,08,22,10,36,1020.86
2010,08,22,10,37,1020.86
2010,08,22,10,38,1020.89
2010,08,22,10,39,1020.86
2010,08,22,10,40,1020.93
2010,08,22,10,41,1020.93
2010,08,22,10,42,1020.93
2010,08,22,10,43,1021.03
2010,08,22,10,44,1020.96
2010,08,22,10,45,1021.06
2010,08,22,10,46,1021.03
2010,08,22,10,47,1021.06
2010,08,22,10,48,1021.10
2010,08,22,10,49,1021.06
2010,08,22,10,50,1021.10
2010,08,22,10,51,1021.10
2010,08,22,10,52,1021.10
2010,08,22,10,53,1021.10
2010,08,22,10,54,1021.17
2010,08,22,10,55,1021.13
2010,08,22,10,56,1021.17
2010,08,22,10,57,1021.17
2010,08,22,10,58,1021.17
2010,08,22,10,59,1021.17
2010,08,22,11,00,1021.20
2010,08,22,11,01,1021.17
2010,08,22,11,02,1021.20
2010,08,22,11,03,1021.23
2010,08,22,11,04,1021.17
2010,08,22,11,05,1021.23
2010,08,22,11,06,1021.20
2010,08,22,11,07,1021.23
2010,08,22,11,08,1021.27
2010,08,22,11,09,1021.23
2010,08,22,11,10,1021.27
2010,08,22,11,11,1021.27
2010,08,22,11,12,1021.30
2010,08,22,11,13,1021.27
2010,08,22,11,14,1021.30
2010,08,22,11,15,1021.30
2010,08,22,11,16,1021.30
2010,08,22,11,17,1021.27
2010,08,22,11,18,1021.27
2010,08,22,11,19,1021.27
2010,08,22,11,20,1021.23
2010,08,22,11,21,1021.30
2010,08,22,11,22,1021.34
2010,08,22,11,23,1021.37
2010,08,22,11,24,1021.34
2010,08,22,11,25,1021.34
2010,08,22,11,26,1021.34
2010,08,22,11,27,1021.34
2010,08,22,11,28,1021.34
2010,08,22,11,29,1021.37
2010,08,22,11,30,1021.37
2010,08,22,11,31,1021.37
2010,08,22,11,32,1021.40
2010,08,22,11,33,1021.40
2010,08,22,11,34,1021.47
2010,08,22,11,35,1021.44
2010,08,22,11,36,1021.47
2010,08,22,11,37,1021.54
2010,08,22,11,38,1021.50
2010,08,22,11,39,1021.54
2010,08,22,11,40,1021.54
2010,08,22,11,41,1021.54
2010,08,22,11,42,1021.57
2010,08,22,11,43,1021.57
2010,08,22,11,44,1021.57
2010,08,22,11,45,1021.57
2010,08,22,11,46,1021.64
2010,08,22,11,47,1021.67
2010,08,22,11,48,1021.71
2010,08,22,11,49,1021.71
2010,08,22,11,50,1021.74
2010,08,22,11,51,1021.74
2010,08,22,11,52,1021.78
2010,08,22,11,53,1021.74
2010,08,22,11,54,1021.81
2010,08,22,11,55,1021.81
2010,08,22,11,56,1021.74
2010,08,22,11,57,1021.78
2010,08,22,11,58,1021.81
2010,08,22,11,59,1021.81
2010,08,22,12,00,1021.88
2010,08,22,12,01,1021.81
2010,08,22,12,02,1021.81
2010,08,22,12,03,1021.91
2010,08,22,12,04,1021.88
2010,08,22,12,05,1021.88
2010,08,22,12,06,1021.91
2010,08,22,12,07,1021.88
2010,08,22,12,08,1021.91
2010,08,22,12,09,1021.91
2010,08,22,12,10,1021.91
2010,08,22,12,11,1021.88
2010,08,22,12,12,1021.88
2010,08,22,12,13,1021.91
2010,08,22,12,14,1021.91
2010,08,22,12,15,1021.94
2010,08,22,12,16,1021.94
2010,08,22,12,17,1021.94
2010,08,22,12,18,1021.94
2010,08,22,12,19,1021.94
2010,08,22,12,20,1021.98
2010,08,22,12,21,1022.01
2010,08,22,12,22,1021.98
2010,08,22,12,23,1021.98
2010,08,22,12,24,1022.01
2010,08,22,12,25,1021.98
2010,08,22,12,26,1022.01
2010,08,22,12,27,1022.01
2010,08,22,12,28,1021.98
2010,08,22,12,29,1021.98
2010,08,22,12,30,1022.01
2010,08,22,12,31,1021.98
2010,08,22,12,32,1022.01
2010,08,22,12,33,1022.01
2010,08,22,12,34,1022.01
2010,08,22,12,35,1022.10
2010,08,22,12,36,1022.01
2010,08,22,12,37,1022.05
2010,08,22,12,38,1022.01
2010,08,22,12,39,1022.11
2010,08,22,12,40,1022.11
2010,08,22,12,41,1022.11
2010,08,22,12,42,1022.11
2010,08,22,12,43,1022.11
2010,08,22,12,44,1022.15
2010,08,22,12,45,1022.18
2010,08,22,12,46,1022.18
2010,08,22,12,47,1022.25
2010,08,22,12,48,1022.22
2010,08,22,12,49,1022.22
2010,08,22,12,50,1022.28
2010,08,22,12,51,1022.25
2010,08,22,12,52,1022.28
2010,08,22,12,53,1022.28
2010,08,22,12,54,1022.28
2010,08,22,12,55,1022.28
2010,08,22,12,56,1022.28
2010,08,22,12,57,1022.32
2010,08,22,12,58,1022.28
2010,08,22,12,59,1022.28
2010,08,22,13,00,1022.39
2010,08,22,13,01,1022.32
2010,08,22,13,02,1022.35
2010,08,22,13,03,1022.39
2010,08,22,13,04,1022.45
2010,08,22,13,05,1022.45
2010,08,22,13,06,1022.45
2010,08,22,13,07,1022.49
2010,08,22,13,08,1022.49
2010,08,22,13,09,1022.49
2010,08,22,13,10,1022.59
2010,08,22,13,11,1022.55
2010,08,22,13,12,1022.59
2010,08,22,13,13,1022.59
2010,08,22,13,14,1022.59
2010,08,22,13,15,1022.55
2010,08,22,13,16,1022.62
2010,08,22,13,17,1022.62
2010,08,22,13,18,1022.66
2010,08,22,13,19,1022.69
2010,08,22,13,20,1022.66
2010,08,22,13,21,1022.62
2010,08,22,13,22,1022.62
2010,08,22,13,23,1022.59
2010,08,22,13,24,1022.62
2010,08,22,13,25,1022.66
2010,08,22,13,26,1022.66
2010,08,22,13,27,1022.66
2010,08,22,13,28,1022.72
2010,08,22,13,29,1022.72
2010,08,22,13,30,1022.72
2010,08,22,13,31,1022.76
2010,08,22,13,32,1022.72
2010,08,22,13,33,1022.72
2010,08,22,13,34,1022.76
2010,08,22,13,35,1022.76
2010,08,22,13,36,1022.76
2010,08,22,13,37,1022.79
2010,08,22,13,38,1022.83
2010,08,22,13,39,1022.89
2010,08,22,13,40,1022.83
2010,08,22,13,41,1022.86
2010,08,22,13,42,1022.89
2010,08,22,13,43,1022.93
2010,08,22,13,44,1022.99
2010,08,22,13,45,1022.89
2010,08,22,13,46,1022.86
2010,08,22,13,47,1022.89
2010,08,22,13,48,1022.99
2010,08,22,13,49,1022.93
2010,08,22,13,50,1022.96
2010,08,22,13,51,1023.03
2010,08,22,13,52,1022.93
2010,08,22,13,53,1023.03
2010,08,22,13,54,1023.10
2010,08,22,13,55,1022.99
2010,08,22,13,56,1023.06
2010,08,22,13,57,1023.03
2010,08,22,13,58,1023.13
2010,08,22,13,59,1023.13
2010,08,22,14,00,1023.10
2010,08,22,14,01,1023.13
2010,08,22,14,02,1023.10
2010,08,22,14,03,1023.06
2010,08,22,14,04,1023.06
2010,08,22,14,05,1023.13
2010,08,22,14,06,1023.16
2010,08,22,14,07,1023.13
2010,08,22,14,08,1023.16
2010,08,22,14,09,1023.16
2010,08,22,14,10,1023.27
2010,08,22,14,11,1023.16
2010,08,22,14,12,1023.20
2010,08,22,14,13,1023.20
2010,08,22,14,14,1023.20
2010,08,22,14,15,1023.23
2010,08,22,14,16,1023.20
2010,08,22,14,17,1023.27
2010,08,22,14,18,1023.27
2010,08,22,14,19,1023.27
2010,08,22,14,20,1023.30
2010,08,22,14,21,1023.33
2010,08,22,14,22,1023.30
2010,08,22,14,23,1023.33
2010,08,22,14,24,1023.40
2010,08,22,14,25,1023.40
2010,08,22,14,26,1023.40
2010,08,22,14,27,1023.43
2010,08,22,14,28,1023.43
2010,08,22,14,29,1023.37
2010,08,22,14,30,1023.40
2010,08,22,14,31,1023.40
2010,08,22,14,32,1023.43
2010,08,22,14,33,1023.43
2010,08,22,14,34,1023.50
2010,08,22,14,35,1023.47
2010,08,22,14,36,1023.50
2010,08,22,14,37,1023.47
2010,08,22,14,38,1023.47
2010,08,22,14,39,1023.50
2010,08,22,14,40,1023.54
2010,08,22,14,41,1023.50
2010,08,22,14,42,1023.50
2010,08,22,14,43,1023.57
2010,08,22,14,44,1023.57
2010,08,22,14,45,1023.54
2010,08,22,14,46,1023.60
2010,08,22,14,47,1023.57
2010,08,22,14,48,1023.60
2010,08,22,14,49,1023.67
2010,08,22,14,50,1023.64
2010,08,22,14,51,1023.60
2010,08,22,14,52,1023.64
2010,08,22,14,53,1023.67
2010,08,22,14,54,1023.67
2010,08,22,14,55,1023.64
2010,08,22,14,56,1023.64
2010,08,22,14,57,1023.67
2010,08,22,14,58,1023.77
2010,08,22,14,59,1023.71
2010,08,22,15,00,1023.71
2010,08,22,15,01,1023.74
2010,08,22,15,02,1023.74
2010,08,22,15,03,1023.77
2010,08,22,15,04,1023.77
2010,08,22,15,05,1023.74
2010,08,22,15,06,1023.74
2010,08,22,15,07,1023.74
2010,08,22,15,08,1023.74
2010,08,22,15,09,1023.81
2010,08,22,15,10,1023.77
2010,08,22,15,11,1023.81
2010,08,22,15,12,1023.84
2010,08,22,15,13,1023.88
2010,08,22,15,14,1023.81
2010,08,22,15,15,1023.84
2010,08,22,15,16,1023.91
2010,08,22,15,17,1023.94
2010,08,22,15,18,1023.91
2010,08,22,15,19,1023.94
2010,08,22,15,20,1023.94
2010,08,22,15,21,1023.94
2010,08,22,15,22,1023.94
2010,08,22,15,23,1024.01
2010,08,22,15,24,1023.91
2010,08,22,15,25,1023.94
2010,08,22,15,26,1023.88
2010,08,22,15,27,1023.88
2010,08,22,15,28,1023.91
2010,08,22,15,29,1023.91
2010,08,22,15,30,1023.94
2010,08,22,15,31,1023.88
2010,08,22,15,32,1023.84
2010,08,22,15,33,1023.91
2010,08,22,15,34,1023.88
2010,08,22,15,35,1023.98
2010,08,22,15,36,1023.91
2010,08,22,15,37,1023.94
2010,08,22,15,38,1023.98
2010,08,22,15,39,1024.01
2010,08,22,15,40,1024.04
2010,08,22,15,41,1024.04
2010,08,22,15,42,1024.01
2010,08,22,15,43,1024.08
2010,08,22,15,44,1024.01
2010,08,22,15,45,1024.08
2010,08,22,15,46,1024.08
2010,08,22,15,47,1024.15
2010,08,22,15,48,1024.15
2010,08,22,15,49,1024.15
2010,08,22,15,50,1024.15
2010,08,22,15,51,1024.15
2010,08,22,15,52,1024.15
2010,08,22,15,53,1024.15
2010,08,22,15,54,1024.15
2010,08,22,15,55,1024.08
2010,08,22,15,56,1024.15
2010,08,22,15,57,1024.21
2010,08,22,15,58,1024.18
2010,08,22,15,59,1024.15